Вернуться в каталог

THOR ABLESTAR DEB

АктивенLEO
NORAD 648·DEBRIS·🇺🇸 United States

Запущен Jun 29, 1961 с Cape Canaveral Space Force Station

Loading…

Ближайшие Пролёты (ближайшие 24 часа)

TLE

СвежийSource: Space-Track

Эпоха: Sep 14, 2026, 05:55 UTC

1 00648U 61015GZ  26257.24700236  .00000590  00000-0  78906-3 0  9994
2 00648  65.8728 176.6098 0198346 183.6461 337.9262 13.59710630211082

Отслеживайте THOR ABLESTAR DEB в реальном времени с AllMySat

Download on the App Store